This is the latest recevied weather packets stored in our database for station/object DK6GC-10. If no packets are shown the sender has not sent any weather packets the latest 10 day(s).
| Time | Temp. | Humidity | Pressure | Rain* | Wind** | Luminosity | Snow |
|---|---|---|---|---|---|---|---|
| 1787905815 | 20.56° C | 100% | 1013.6 hPa | - | - | - | - |
| 1787904915 | 20.56° C | 100% | 1013.9 hPa | - | - | - | - |
| 1787904014 | 20.56° C | 100% | 1012.9 hPa | - | - | - | - |
| 1787903114 | 20.56° C | 100% | 1012.1 hPa | - | - | - | - |
| 1787902214 | 21.11° C | 100% | 1011.4 hPa | - | - | - | - |
| 1787901314 | 21.67° C | 100% | 1011.6 hPa | - | - | - | - |
| 1787900414 | 21.67° C | 100% | 1011.6 hPa | - | - | - | - |
| 1787899514 | 23.33° C | 93% | 1011.6 hPa | - | - | - | - |
| 1787898613 | 23.89° C | 91% | 1011.2 hPa | - | - | - | - |
| 1787897713 | 21.67° C | 100% | 1011.5 hPa | - | - | - | - |
| 1787892323 | 20° C | 100% | 1012.8 hPa | - | - | - | - |
| 1787891423 | 19.44° C | 100% | 1011.6 hPa | - | - | - | - |
| 1787890522 | 20° C | 100% | 1011.9 hPa | - | - | - | - |
| 1787889622 | 20° C | 100% | 1011.9 hPa | - | - | - | - |
| 1787888721 | 20° C | 100% | 1012 hPa | - | - | - | - |
| 1787887821 | 20° C | 100% | 1012.9 hPa | - | - | - | - |
| 1787886921 | 20° C | 100% | 1012.5 hPa | - | - | - | - |
| 1787886021 | 20° C | 100% | 1012.7 hPa | - | - | - | - |
| 1787885121 | 20° C | 100% | 1012.2 hPa | - | - | - | - |
| 1787883320 | 20.56° C | 88% | 1011.6 hPa | - | - | - | - |
| 1787882420 | 20.56° C | 87% | 1012.1 hPa | - | - | - | - |
| 1787881520 | 20.56° C | 89% | 1012.5 hPa | - | - | - | - |
| 1787880620 | 20.56° C | 89% | 1012.6 hPa | - | - | - | - |
| 1787879719 | 20.56° C | 86% | 1012.6 hPa | - | - | - | - |
| 1787878819 | 21.11° C | 83% | 1012.4 hPa | - | - | - | - |
* Rain since midnight (hover to see other rain measurements)
** Current wind speed in m/s (hover to see current wind gust speed)